Regional Weather Roundup
Issued by NWS

Home | Current Version | Previous Version | Text Only | Print | Product List | Glossary Off
Versions: 1 2 3 4 5 6 7 8 9 10 11 12 13 14 15 16 17 18 19 20 21 22 23 24 25 26 27 28 29 30 31 32 33 34 35 36 37 38 39 40 41 42 43 44 45 46 47 48 49 50

339
ASUS43 KDTX 201210
RWRMI
MICHIGAN HOURLY REGIONAL WEATHER ROUNDUP
NATIONAL WEATHER SERVICE DETROIT/PONTIAC MI
800 AM EDT FRI OCT 20 2017

NOTE: "FAIR" INDICATES FEW OR NO CLOUDS BELOW 12,000 FEET WITH NO
SIGNIFICANT WEATHER AND/OR OBSTRUCTION TO VISIBILITY.

MIZ047>049-052>055-059>063-066>070-074>076-081>083-201300-
SOUTHEAST LOWER MICHIGAN

CITY           SKY/WX    TMP DP  RH WIND       PRES   REMARKS
ADRIAN         FAIR      39  34  82 CALM      30.28R
6HR MIN TEMP:  39; 6HR MAX TEMP:  46;

ALMA           FAIR      40  33  76 CALM      30.20S
ANN ARBOR      FAIR      40  32  73 SW3       30.26R
BAD AXE        FAIR      36  32  85 SE3       30.22R
6HR MIN TEMP:  36; 6HR MAX TEMP:  45;

CARO           FAIR      34  33  94 CALM      30.21S
DETROIT CITY   FAIR      43  37  79 CALM      30.26R
6HR MIN TEMP:  41; 6HR MAX TEMP:  52;

DETROIT        FAIR      43  36  76 S7        30.27R
6HR MIN TEMP:  43; 6HR MAX TEMP:  51;

FLINT          FAIR      39  35  86 S3        30.24R
6HR MIN TEMP:  35; 6HR MAX TEMP:  43;

GROSSE ILE     FAIR      47  38  71 CALM      30.26R
6HR MIN TEMP:  43; 6HR MAX TEMP:  50;

HILLSDALE      FAIR      41  34  75 SE5       30.25R
HOWELL         FAIR      40  35  81 CALM      30.24R
6HR MIN TEMP:  39; 6HR MAX TEMP:  44;


CITY           SKY/WX    TMP DP  RH WIND       PRES   REMARKS
JACKSON        FAIR      41  36  82 CALM      30.25R
6HR MIN TEMP:  37; 6HR MAX TEMP:  43;

LAMBERTVILLE   FAIR      39  35  85 CALM      30.28R
6HR MIN TEMP:  39; 6HR MAX TEMP:  45;

LANSING        FAIR      44  33  65 SE3       30.23S
6HR MIN TEMP:  39; 6HR MAX TEMP:  45;

LAPEER         FAIR      35  35  99 CALM      30.24S
6HR MIN TEMP:  35; 6HR MAX TEMP:  41;

MASON          FAIR      45  34  66 S3        30.23S
MONROE         FAIR      39  34  81 CALM      30.27R
MT. CLEMENS    PTCLDY    38  36  90 CALM      30.24R
6HR MIN TEMP:  38; 6HR MAX TEMP:  51;

PONTIAC        FAIR      40  36  86 CALM      30.24R
6HR MIN TEMP:  39; 6HR MAX TEMP:  49;

PORT HOPE        N/A     48  33  56 SW6       30.18S
6HR MIN TEMP:  48; 6HR MAX TEMP:  53;

PORT HURON     FAIR      36  34  93 CALM      30.25S
TRI CITIES     FAIR      44  36  73 S6        30.21S
6HR MIN TEMP:  41; 6HR MAX TEMP:  48;

MIDLAND        FAIR      35  34  98 CALM      30.20R
6HR MIN TEMP:  35; 6HR MAX TEMP:  38;

TROY           FAIR      44  35  70 CALM      30.27R
SAGINAW HB     FAIR      41  32  70 S5        30.21R
$$
MIZ043>046-050>051-056>058-064>065-071>073-077>080-201300-
SOUTHWEST LOWER MICHIGAN

CITY           SKY/WX    TMP DP  RH WIND       PRES   REMARKS
BATTLE CREEK   FAIR      47  35  63 S6        30.23R
6HR MIN TEMP:  41; 6HR MAX TEMP:  47;

BENTON HARBOR  FAIR      49  40  71 SE3       30.20S
6HR MIN TEMP:  42; 6HR MAX TEMP:  52;

BIG RAPIDS     FAIR      37  35  92 CALM      30.17S
6HR MIN TEMP:  36; 6HR MAX TEMP:  41;

COLDWATER      FAIR      49  36  61 S3        30.24S
6HR MIN TEMP:  39; 6HR MAX TEMP:  49;

FREMONT        FAIR      49  34  56 S6        30.17S
HOLLAND        FAIR      49  38  65 S6        30.20R
6HR MIN TEMP:  42; 6HR MAX TEMP:  49;

GRAND RAPIDS   FAIR      49  36  61 S8        30.20R
6HR MIN TEMP:  42; 6HR MAX TEMP:  49;

IONIA          FAIR      47  31  54 S7        30.20S
6HR MIN TEMP:  40; 6HR MAX TEMP:  47;

KALAMAZOO      FAIR      47  34  60 S6        30.23R
6HR MIN TEMP:  40; 6HR MAX TEMP:  47;

LUDINGTON      FAIR      52  41  65 S5        30.13S
6HR MIN TEMP:  41; 6HR MAX TEMP:  52;

MARSHALL       FAIR      39  37  92 CALM      30.23S
6HR MIN TEMP:  38; 6HR MAX TEMP:  41;

MOUNT PLEASANT FAIR      42  38  86 CALM      30.19S
6HR MIN TEMP:  40; 6HR MAX TEMP:  45;

MUSKEGON       FAIR      48  39  71 SE3       30.18R
6HR MIN TEMP:  44; 6HR MAX TEMP:  49;

SOUTH HAVEN    FAIR      51  41  69 S3        30.20R
$$
MIZ016>042-201300-
NORTHERN LOWER MICHIGAN

CITY           SKY/WX    TMP DP  RH WIND       PRES   REMARKS
ALPENA         FOG       37  35  92 CALM      30.16S VSB 1/4
6HR MIN TEMP:  36; 6HR MAX TEMP:  50;

BEAVER ISLAND  FAIR      58  47  66 S7        30.08S
6HR MIN TEMP:  55; 6HR MAX TEMP:  58;

BELLAIRE       FAIR      38  35  90 CALM      30.13S
6HR MIN TEMP:  36; 6HR MAX TEMP:  40;

CADILLAC       FAIR      48  32  53 SW7       30.15S
CHARLEVOIX     FAIR      55  36  48 S8        30.12F
FRANKFORT      FAIR      60  44  55 S7        30.11R
GAYLORD        FAIR      41  32  70 SW5       30.14S
6HR MIN TEMP:  38; 6HR MAX TEMP:  48;

GRAYLING       FAIR      32  28  86 CALM      30.16S
6HR MIN TEMP:  30; 6HR MAX TEMP:  37;

HARBOR SPRINGS FAIR      49  37  64 CALM      30.11S
HOUGHTON LAKE  FAIR      39  34  82 S3        30.18S
6HR MIN TEMP:  36; 6HR MAX TEMP:  49;

MANISTEE       FAIR      45  37  73 VRB3      30.13S
OSCODA         FAIR      42  33  68 SW8       30.18S
6HR MIN TEMP:  40; 6HR MAX TEMP:  48;

PELLSTON       FAIR      39  37  92 CALM      30.11S
6HR MIN TEMP:  38; 6HR MAX TEMP:  49;

ROGERS CITY    FAIR      48  34  58 S10       30.13F
TRAVERSE CITY  FAIR      52  34  50 SE5       30.11S
6HR MIN TEMP:  50; 6HR MAX TEMP:  54;

$$
MIZ007>008-015-201300-
EASTERN UPPER MICHIGAN

CITY           SKY/WX    TMP DP  RH WIND       PRES   REMARKS
KINROSS        FAIR      51  48  89 VRB3      30.08S
6HR MIN TEMP:  49; 6HR MAX TEMP:  52;

MACKINAC ISLAN FAIR      55  39  56 S12       30.08F
6HR MIN TEMP:  54; 6HR MAX TEMP:  56;

NEWBERRY       FAIR      53  51  92 S15G22    30.04F
6HR MIN TEMP:  46; 6HR MAX TEMP:  53;

S. S. MARIE    FAIR      43  40  89 E5        30.07S
6HR MIN TEMP:  41; 6HR MAX TEMP:  44;

MUNISING         N/A     52  40  63 S12G20    30.00F
6HR MIN TEMP:  48; 6HR MAX TEMP:  56;

$$
MIZ004>006-011>014-085-201300-
CENTRAL UPPER MICHIGAN

CITY           SKY/WX    TMP DP  RH WIND       PRES   REMARKS
MANISTIQUE     FAIR      54  47  78 SW9       30.05F
6HR MIN TEMP:  51; 6HR MAX TEMP:  54;

ESCANABA       FAIR      49  40  71 CALM      30.04F
6HR MIN TEMP:  48; 6HR MAX TEMP:  53;

MENOMINEE      FAIR      44  41  89 CALM      30.06S
6HR MIN TEMP:  44; 6HR MAX TEMP:  54;

SAWYER-GWINN   CLEAR     43  36  75 S6        30.02S
$$
MIZ001>003-009>011-084-201300-
WESTERN UPPER MICHIGAN

CITY           SKY/WX    TMP DP  RH WIND       PRES   REMARKS
IRON MOUNTAIN  FAIR      42  34  73 SE3       30.02S
6HR MIN TEMP:  41; 6HR MAX TEMP:  46;

HOUGHTON       FAIR      50  39  66 S6        29.92S
6HR MIN TEMP:  49; 6HR MAX TEMP:  54;

COPPER HARBOR    N/A     56  38  50 SW10G18   29.90F
6HR MIN TEMP:  55; 6HR MAX TEMP:  56;

IRONWOOD       FAIR      54  43  66 S10       29.92F
6HR MIN TEMP:  54; 6HR MAX TEMP:  57;

$$

ABBREVIATIONS USED IN REMARKS
   TC - TEMPERATURE IN CELSIUS
  WCI - WIND CHILL INDEX
   HX - HEAT INDEX
  VSB - VISIBILITY





USA.gov is the U.S. government's official web portal to all federal, state and local government web resources and services.